Regional Weather Roundup
Issued by NWS Mobile, AL

Home | Current Version | Previous Version | Text Only | Print | Product List | Glossary On
Versions: 1 2 3 4 5 6 7 8 9 10 11 12 13 14 15 16 17 18 19 20 21 22 23 24 25 26 27 28 29 30 31 32 33 34 35 36 37 38 39 40 41 42 43 44 45 46 47 48 49 50
000
ASUS44 KMOB 311217
RWRMOB
REGIONAL WEATHER ROUNDUP
NATIONAL WEATHER SERVICE MOBILE AL
700 AM CDT FRI JUL 31 2015

ALZ061>064-311300-
COASTAL ALABAMA


CITY           SKY/WX    TMP DP  RH WIND       PRES   REMARKS
MOBILE REG APT PTCLDY    76  71  85 N10       29.95R HAZE
6HR MIN TEMP:  74; 6HR MAX TEMP:  76;

BROOKLEY FIELD MOCLDY    78  71  79 N8        29.94R
6HR MIN TEMP:  76; 6HR MAX TEMP:  79; 6HR PCP: TRACE;

GULF SHORES    PTSUNNY   76  73  91 N5        29.91R
6HR MIN TEMP:  76; 6HR MAX TEMP:  78;


$$

ALZ051>060-311300-
INTERIOR SOUTHWEST AND SOUTH CENTRAL ALABAMA


CITY           SKY/WX    TMP DP  RH WIND       PRES   REMARKS
ANDALUSIA/OPP  SUNNY     79  74  84 CALM      29.93R HAZE
6HR MIN TEMP:  78; 6HR MAX TEMP:  80;

EVERGREEN      SUNNY     76  71  85 N5        29.95R
6HR MIN TEMP:  74; 6HR MAX TEMP:  77;

FLORALA        CLOUDY    75  73  94 N3        29.95R FOG
6HR MIN TEMP:  74; 6HR MAX TEMP:  77;

GREENVILLE     FAIR      77  69  76 N6        29.95R
6HR MIN TEMP:  76; 6HR MAX TEMP:  80;


$$

FLZ001>006-311300-
WESTERN FLORIDA PANHANDLE


CITY           SKY/WX    TMP DP  RH WIND       PRES   REMARKS
CRESTVIEW      PTSUNNY   77  75  93 VRB3      29.93R
6HR MIN TEMP:  75; 6HR MAX TEMP:  77;

DESTIN         CLOUDY    82  79  90 CALM      29.91S
6HR MIN TEMP:  80; 6HR MAX TEMP:  82;

DUKE FIELD     FAIR      76  75  95 SE2       29.92R
6HR MIN TEMP:  75; 6HR MAX TEMP:  78;

MARY ESTHER    NOT AVBL
MILTON         CLOUDY    79  75  87 N7        29.92R
6HR MIN TEMP:  76; 6HR MAX TEMP:  79;

PENSACOLA      PTSUNNY   77  74  90 N6        29.91R
6HR MIN TEMP:  76; 6HR MAX TEMP:  78;

NAS PENSACOLA  PTSUNNY   76  74  93 CALM      29.91R
6HR MIN TEMP:  76; 6HR MAX TEMP:  78;

VALPARAISO     PTSUNNY   79  75  89 CALM      29.92R
6HR MIN TEMP:  76; 6HR MAX TEMP:  79;


$$

...MARINE OBSERVATIONS...

STATION/POSITION TIME  SKY/WX   TEMP    WIND        PRES    VSBY
                                AIR SEA DIR/SP/G
                 (UTC)          (F)     (DEG/KT/KT) (MB)    (MI)
PASCAGOULA       1100            77     350/  9/ 12 1012.7R
PETIT BOIS ISL   1100            81      10/ 15/ 18 1013.3R
E DAUPHIN ISLAND 1200            82      20/ 14/ 16 1012.9R
USCG MOBILE BAY  1100            79 84  360/  8/ 11 1012.0R
STATE DOCKS      1100            78 84              1012.7R
MEAHER PARK      1200            77     340/  6     1012.9R
12 S ORANGE BCH  1150            81 85   40/  8/ 10 1012.1R
WVE H/P(F/S)=  1/ 2

PENSACOLA BAY    1100            78 86   10/  5/  7 1012.6R
64 S DAUPHIN ISL 1150            84 87   20/  8/ 10 1012.6F
WVE H/P(F/S)=  2/ 4

67 S FORT MORGAN 1130            84      10/  8     1012.5S
115 SE PENSACOLA 1150            84 86  220/ 14/ 16 1012.9R
WVE H/P(F/S)=  3/ 5

MID GULF/42001   1150            80 84  220/ 10/ 12 1015.1R
WVE H/P(F/S)=  2/ 4

EAST GULF/42003  1150            83 85  240/ 16/ 17 1014.3R
WVE H/P(F/S)=  3/ 5


$$

...NEARBY LOCATIONS

CITY           SKY/WX    TMP DP  RH WIND       PRES   REMARKS
GULFPORT       PTCLDY    77  70  79 N7        29.93R
6HR MIN TEMP:  76; 6HR MAX TEMP:  78;

BILOXI         PTCLDY    76  71  84 VRB3      29.93R
6HR MIN TEMP:  76; 6HR MAX TEMP:  77;

PASCAGOULA     PTCLDY    75  72  90 N8        29.93R
6HR MIN TEMP:  74; 6HR MAX TEMP:  76;

HATTIESBURG    CLEAR     73  68  84 NW3       29.98R
6HR MIN TEMP:  72; 6HR MAX TEMP:  77;

LAUREL         CLEAR     72  64  78 N9        30.00R
6HR MIN TEMP:  72; 6HR MAX TEMP:  75;

MERIDIAN       CLEAR     73  63  70 N9        30.01R
6HR MIN TEMP:  72; 6HR MAX TEMP:  78;

MERIDIAN NAS   CLEAR     72  63  73 N6        30.01R
6HR MIN TEMP:  70; 6HR MAX TEMP:  77;

MONTGOMERY     SUNNY     77  67  71 N5        29.96R
6HR MIN TEMP:  76; 6HR MAX TEMP:  81;

MAXWELL AFB    SUNNY     76  68  75 N7        29.95R
6HR MIN TEMP:  75; 6HR MAX TEMP:  81;

TROY           SUNNY     77  73  87 N5        29.95R
6HR MIN TEMP:  73; 6HR MAX TEMP:  77;

FORT RUCKER    CLOUDY    77  75  93 CALM      29.92R FOG
6HR MIN TEMP:  76; 6HR MAX TEMP:  78;

DALEVILLE      MOSUNNY   76  75  99 NW1       29.93R FOG
6HR MIN TEMP:  75; 6HR MAX TEMP:  77;

DOTHAN         MOSUNNY   76  75  97 CALM      29.97R FOG
6HR MIN TEMP:  75; 6HR MAX TEMP:  77;


$$

...OTHER SURROUNDING LOCATIONS...

CITY           SKY/WX    TMP DP  RH WIND       PRES   REMARKS
BIRMINGHAM     MOSUNNY   71  64  78 N5        30.04R
6HR MIN TEMP:  69; 6HR MAX TEMP:  75;

TUSCALOOSA     SUNNY     73  63  70 N7        30.01R
6HR MIN TEMP:  72; 6HR MAX TEMP:  77;

COLUMBUS GA    SUNNY     77  68  73 CALM      29.94R
6HR MIN TEMP:  76; 6HR MAX TEMP:  80;

PANAMA CITY    NOT AVBL
TALLAHASSEE    MOSUNNY   79  76  90 CALM      29.94R
6HR MIN TEMP:  77; 6HR MAX TEMP:  79;

BATON ROUGE    CLEAR     75  72  90 VRB3      29.98R
6HR MIN TEMP:  75; 6HR MAX TEMP:  77;

NEW ORLEANS    MOCLDY    82  71  69 NE8       29.95R
6HR MIN TEMP:  80; 6HR MAX TEMP:  82;

SLIDELL        CLEAR     76  74  93 N6        29.95R
6HR MIN TEMP:  75; 6HR MAX TEMP:  76;

JACKSON        CLEAR     74  63  68 NE6       30.02R
6HR MIN TEMP:  74; 6HR MAX TEMP:  81;

MCCOMB         CLEAR     74  69  85 N8        30.00R
6HR MIN TEMP:  73; 6HR MAX TEMP:  77;


$$

...SURROUNDING MARINE OBSERVATIONS...

STATION/POSITION TIME  SKY/WX   TEMP    WIND        PRES    VSBY
                                AIR SEA DIR/SP/G
                 (UTC)          (F)     (DEG/KT/KT) (MB)    (MI)
WAVELAND         1100            78 85  360/ 10/ 13 1013.9R
PASCAGOULA RGN A 1100            78      10/  9/ 14 1012.4R
PASCAGOULA PORT  1100               85                N/A
GRAND ISLE       1100            82 88  360/ 11/ 15 1013.7R
SOUTHWEST PASS   1200            80     310/  9/ 10 1013.6R
PILOT STATION E  1100            85 86   30/ 21/ 29 1014.1R
SHELL BEACH      1100            81 87   10/ 15/ 16 1013.1R
PANAMA CITY      1100            79 85  120/  4/  5 1012.3R
APALACHICOLA     1100            83 87  220/  4/  6 1012.7R
TYNDALL TOWER C  1200            82     250/ 17/ 19 1013.1R
S APLCHCLA/42036 1150            84 85  210/ 14/ 16 1013.4R
WVE H/P(F/S)=  3/ 5


$$



USA.gov is the U.S. government's official web portal to all federal, state and local government web resources and services.